Wenatchee, WA

7:44 PM PDT on April 25, 2017 (GMT -0700)
Pangborn Memorial

Weather History for KEAT - August, 2014

Change the Weather History Date:

Sunday, August 31, 2014

  Actual Average Record
Temperature  
Mean Temperature 60 °F 70 °F  
Max Temperature 71 °F 82 °F 99 °F (1967)
Min Temperature 49 °F 57 °F 45 °F (1999)
Degree Days  
Heating Degree Days 5 1  
Month to date heating degree days 15 3  
Since 1 June heating degree days 218 72  
Since 1 July heating degree days 27 14  
Cooling Degree Days 0 5  
Month to date cooling degree days 153 80  
Year to date cooling degree days 397 788  
Since 1 June cooling degree days 397 641  
Growing Degree Days 18 (Base 50)    
Moisture  
Dew Point 40 °F    
Average Humidity 40    
Maximum Humidity 55    
Minimum Humidity 23    
Precipitation  
Precipitation 0.00 in 0.01 in 0.05 in (1964)
Month to date precipitation 0.37 0.20  
Year to date precipitation 11.76 4.72  
Snow  
Snow 0.00 in - - ()
Month to date snowfall 0.0  
Since 1 June snowfall 0.0  
Snow Depth 0.00 in    
Sea Level Pressure  
Sea Level Pressure 29.92 in    
Wind  
Wind Speed 14 mph (WNW)    
Max Wind Speed 21 mph    
Max Gust Speed 26 mph    
Visibility 10 miles    
Events      
T = Trace of Precipitation, MM = Missing Value Source: NWS Daily Summary

Daily Weather History Graph

Daily Weather History Graph

Search for Another Location

Airport or City:

Trip Planner

Search our weather history database for the weather conditions in past years. The results will help you decide how hot, cold, wet, or windy it might be!

Date:

Astronomy

Aug. 31, 2014 Rise Set
Actual Time 6:18 AM PDT 7:42 PM PDT
Civil Twilight 5:46 AM PDT 8:14 PM PDT
Nautical Twilight 5:07 AM PDT 8:52 PM PDT
Astronomical Twilight 4:26 AM PDT 9:34 PM PDT
Moon 12:35 PM PDT (8/31) 10:35 PM PDT (8/31)
Length of Visible Light 14h 27m
Length of Day
13h 24m
Waxing Crescent, 33% of the Moon is Illuminated
Aug 31
Waxing Crescent
Sep 2
First Quarter
Sep 8
Full
Sep 15
Last Quarter
Sep 23
New

Hourly Weather History & Observations

Time (PDT) Temp. Dew Point Humidity Pressure Visibility Wind Dir Wind Speed Gust Speed Precip Events Conditions
12:55 AM 64.0 °F 46.9 °F 54% 29.85 in 10.0 mi West 12.7 mph - N/A   Clear
1:55 AM 64.9 °F 44.1 °F 47% 29.87 in 10.0 mi WNW 10.4 mph - N/A   Clear
2:55 AM 63.0 °F 44.1 °F 50% 29.88 in 10.0 mi West 13.8 mph - N/A   Clear
3:55 AM 62.1 °F 44.1 °F 52% 29.90 in 10.0 mi NW 11.5 mph - N/A   Clear
4:55 AM 60.1 °F 44.1 °F 55% 29.91 in 10.0 mi WNW 11.5 mph - N/A   Clear
5:55 AM 60.1 °F 44.1 °F 55% 29.92 in 10.0 mi NW 10.4 mph - N/A   Clear
6:55 AM 60.1 °F 44.1 °F 55% 29.93 in 10.0 mi West 6.9 mph - N/A   Clear
7:55 AM 64.9 °F 43.0 °F 45% 29.94 in 10.0 mi NW 13.8 mph - N/A   Clear
8:55 AM 66.0 °F 42.1 °F 42% 29.95 in 10.0 mi NW 15.0 mph - N/A   Clear
9:55 AM 69.1 °F 41.0 °F 36% 29.94 in 10.0 mi WNW 17.3 mph - N/A   Clear
10:55 AM 71.1 °F 39.0 °F 31% 29.94 in 10.0 mi WNW 20.7 mph - N/A   Scattered Clouds
11:55 AM 72.0 °F 37.9 °F 29% 29.94 in 10.0 mi NW 19.6 mph 26.5 mph N/A   Mostly Cloudy
12:55 PM 73.0 °F 37.9 °F 28% 29.94 in 10.0 mi NW 16.1 mph - N/A   Overcast
1:55 PM 73.9 °F 37.0 °F 26% 29.93 in 10.0 mi WNW 15.0 mph 26.5 mph N/A   Mostly Cloudy
2:55 PM 73.9 °F 36.0 °F 25% 29.92 in 10.0 mi WNW 17.3 mph - N/A   Scattered Clouds
3:55 PM 75.9 °F 35.1 °F 23% 29.91 in 10.0 mi NW 18.4 mph - N/A   Clear
6:55 PM 70.0 °F 37.0 °F 30% 29.91 in 10.0 mi WNW 17.3 mph 26.5 mph N/A   Clear
7:55 PM 66.9 °F 37.0 °F 33% 29.92 in 10.0 mi WNW 17.3 mph 24.2 mph N/A   Clear
9:55 PM 64.0 °F 37.9 °F 38% 29.94 in 10.0 mi WNW 16.1 mph - N/A   Clear
10:55 PM 63.0 °F 37.9 °F 40% 29.95 in 10.0 mi WNW 17.3 mph - N/A   Clear
11:55 PM 62.1 °F 39.0 °F 43% 29.96 in 10.0 mi WNW 15.0 mph - N/A   Clear